Location: Newark
(41.0400°S, 62.7845°W)
Time: 00:23:31
(UTC+00:00)

Vanguard 2 - Pass Details

Date: 10 December 2021
Orbit: 554 x 2935 km, 32.9° (Epoch: 27 January)

Event Time Altitude Azimuth Distance (km) Brightness Sun altitude
Rises 06:27:22 0° 269° (W) 6,784 12.0 -17.9°
Reaches altitude 10° 06:32:01 10° 272° (W) 5,774 11.6 -17.4°
Maximum altitude 06:48:58 57° 343° (NNW) 2,869 10.0 -15.4°
Drops below altitude 10° 07:01:11 10° 57° (ENE) 4,279 11.4 -14.0°
Sets 07:04:05 0° 61° (ENE) 4,990 11.9 -13.6°
